KUIPER-00188

导读

KUIPER-00188是美国亚马逊公司“柯伊伯计划”卫星互联网星座中的一颗量产卫星,于2025年12月15日发射升空。该计划计划在近地轨道部署3236颗卫星,旨在为全球提供高速、经济的卫星互联网接入服务,KUIPER-00188将和同批次卫星共同推进全球网络覆盖,助力偏远地区互联网连接。

Basic Information
目录编号:
67142
目录名称:
KUIPER-00188
国际标识:
2025-301K
轨道中心:
EARTH
卫星名称:
KUIPER-00188
卫星全名:
KUIPER-00188
卫星状态:
在轨 (已飞行271 天)
发射日期:
2025-12-15 UTC
国别 :
美国 (US)
星等 :
--
This satellite is enrolled in the Space Conjunction Data Service (SCDS) and the current flight risk assessment level is: No High Risk
Orbit Information
数据来源 国际轨道数据
星历时间: 2026-09-12T03:46:23+0800
12小时前
查看轨道信息
半长轴: 7007.708km
偏心率: 0.0000411
轨道倾角: 51.904°
近地点辐角 69.935°
升交点赤经 305.178°
平近点角 290.166°
近地点: 629.282km
远地点: 629.86km
周期: 97.302分钟
每日圈数: 14.799218
Detailed Information
使用方式:
暂无
2D Orbit Map
3D Orbit Map
Orbit Altitude Analysis Chart
Orbit Inclination Analysis Chart
Orbit Comprehensive Analysis Chart
View Comprehensive Chart
Conjunction Data List
Event ID Objects TCA Miss Dist (km) Collision Risk Probability Collision Risk Index (CRI) Action
CDM_260912-153602-849306-714224
2026-09-12T
15:36:19+0000
1.582 km
极远距离
4.725796E-6 低风险 0.48
CDM_260912-140002-712306-714222
PSLV DEB (27123)
2026-09-12T
14:00:43+0000
2.007 km
极远距离
2.43186E-6 低风险 0.43
Miss Distance Evolution Trend with All Objects
Collision Probability Evolution Trend with All Objects